Location: Gleizolles
(44.4833°N, 6.7667°E)
Time: 17:15:48
(UTC+00:00)

Tiros 1 - Pass Details

Date: 03 July 2024
Orbit: 624 x 656 km, 48.4° (Epoch: 13 July)

Event Time Altitude Azimuth Distance (km) Brightness Sun altitude
Rises 22:21:34 0° 282° (WNW) 2,903 10.9 -20.5°
Reaches altitude 10° 22:23:56 10° 288° (WNW) 1,996 10.1 -20.6°
Maximum altitude 22:28:25 53° 5° (N) 773 7.8 -20.8°
Drops below altitude 10° 22:32:55 10° 83° (E) 2,000 9.6 -21.1°
Enters shadow 22:34:32 - 87° (E) 2,620 10.2 -21.1°
Sets 22:35:17 0° 88° (E) 2,910 - -21.2°
